Location: Herbigny
(49.6105°N, 4.3246°E)
Time: 10:00:08
(UTC+00:00)

Daily predictions for brighter satellites

Satellite Brightness Start Highest point End
(mag) Time Altitude Azimuth Time Altitude Azimuth Time Altitude Azimuth
Cosmos 1975 Rocket 3.1 19:11:03 10° N 19:15:25 87° WSW 19:19:42 10° S
Okean-O 3.5 19:12:17 10° SE 19:16:13 33° ENE 19:20:10 10° N
Cosmos 1953 3.8 19:14:25 10° SSW 19:18:03 41° WNW 19:21:43 10° N
CZ-4B R/B 3.3 19:12:38 10° SSE 19:18:17 89° WSW 19:23:53 10° NNW
Cosmos 2263 Rocket 4.4 19:15:59 10° N 19:18:25 13° NNE 19:20:50 10° NE
CZ-4C R/B 4.4 19:18:48 10° NE 19:21:19 19° E 19:23:47 10° SE
Nadezhda 3 Rocket 4.3 19:16:49 10° SSE 19:22:38 47° E 19:28:31 10° NNE
Cosmos 1821 Rocket 4.0 19:16:41 10° N 19:22:54 78° E 19:29:00 10° SSE
Genesis I 3.7 19:20:01 10° NNW 19:23:29 41° NE 19:26:55 10° ESE
SL-27 R/B 2.3 19:20:48 10° NNW 19:23:42 65° WSW 19:26:31 10° SSE
USA 186 1.8 19:21:44 10° S 19:24:45 76° WSW 19:27:46 10° NNW
BREEZE-M R/B 1.7 19:22:29 10° W 19:25:15 87° SSW 19:27:40 10° E
SPOT 1/Viking Rocket 4.0 19:21:42 10° S 19:26:53 67° WSW 19:32:07 10° NNW
USA 267 3.3 19:20:38 10° ENE 19:27:14 84° SSE 19:33:48 10° SW
Okean O Rocket 1.6 19:26:33 10° SSE 19:30:54 81° ENE 19:35:19 10° NNW
Feng Yun 1-1 Rocket 4.4 19:26:19 10° SSE 19:31:52 82° WSW 19:37:39 10° NNW
Cosmos 1486 Rocket 4.0 19:29:24 10° NNW 19:34:39 89° SW 19:39:50 10° SSE
CZ-4 R/B 2.8 19:32:24 10° SSW 19:36:04 38° W 19:39:41 10° NNW
Cosmos 1536 Rocket 3.8 19:37:09 10° N 19:41:28 50° ENE 19:45:47 10° SSE
SJ 16-02 3.8 19:39:17 10° NW 19:42:31 21° W 19:45:45 10° SSW
Resurs 01 Rocket 1.9 19:41:17 10° S 19:45:41 72° WSW 19:50:08 10° NNW
DELTA 2 DEB (DPAF) 4.0 19:41:39 10° NNE 19:45:55 87° WNW 19:50:08 10° SSW
CENTAUR R/B 4.1 19:41:53 10° NW 19:48:57 39° NNE 19:57:06 10° E
MOS 1 4.4 19:43:50 10° SSE 19:49:26 62° ENE 19:55:04 10° N
NOSS 3-1 (A) 3.0 19:46:39 10° SSW 19:51:34 65° SE 19:57:29 10° NE
ERS-1 Rocket 3.8 19:51:27 15° ESE 19:54:59 34° ENE 19:59:29 10° N
Tiangong 0.0 19:56:12 10° S 19:57:17 12° S 19:57:17 12° S
Cosmos 1934 Rocket 4.0 19:54:13 10° N 20:00:22 67° ENE 20:06:25 11° SSE
USA 229 DEB 4.1 19:55:17 10° S 20:00:40 34° ESE 20:06:31 10° NE
USA 229 4.1 19:55:23 10° S 20:00:46 33° ESE 20:06:36 10° NE
Cosmos 2151 Rocket 3.5 19:58:25 10° S 20:02:47 69° E 20:07:13 10° NNE
USA 234 3.8 19:58:35 12° SSE 20:04:32 51° SW 20:10:53 10° WNW
USA 281 3.3 19:59:08 10° SSE 20:05:43 81° WSW 20:12:20 10° NNW
ATLAS CENTAUR R/B 2.8 20:04:35 10° NNW 20:07:38 23° NE 20:09:58 14° E
Cosmos 2227 Rocket 3.0 20:03:22 10° NNW 20:08:42 39° NE 20:12:21 19° ESE
NOSS 3-1 (C) 3.9 20:07:08 10° WSW 20:12:09 56° NW 20:18:18 10° NE
Iridium 2 2.9 20:09:49 10° N 20:12:47 73° E 20:14:16 26° SSE
SL-4 R/B 1.6 20:12:29 10° WNW 20:16:06 75° NNE 20:17:57 26° E
Cosmos 1892 Rocket 4.3 20:12:25 10° N 20:16:23 34° ENE 20:18:10 24° ESE
Cosmos 371 Rocket 3.6 20:12:26 10° NNW 20:17:11 64° WSW 20:21:08 15° S
Landsat 4 3.6 20:17:01 28° SE 20:18:40 58° ENE 20:22:08 10° N
MetOp-B 4.1 20:15:38 16° SSE 20:20:00 82° ENE 20:25:24 10° NNW
Cosmos 1697 Rocket 3.7 20:18:57 22° SE 20:20:41 26° ESE 20:25:16 10° NE
Cosmos 304 Rocket 3.9 20:16:16 10° NNW 20:21:03 72° WSW 20:24:31 18° SSE
Cosmos 1777 Rocket 4.2 20:16:22 10° NNW 20:21:38 72° WSW 20:25:46 17° SSE
COSMOS 2455 2.9 20:18:12 10° NNW 20:24:15 70° NE 20:27:59 24° SE
Alouette 2 Rocket 4.4 20:16:32 10° NNW 20:24:21 88° W 20:28:13 18° S
Okean 2 Rocket 3.2 20:20:21 10° SSW 20:24:51 78° W 20:29:23 10° N
ATLAS 3B R/B 3.0 20:18:19 10° SW 20:25:30 80° NW 20:33:12 10° NE
SWARM A 4.3 20:25:57 10° N 20:29:31 70° E 20:31:01 32° SSE
SPOT 5 3.1 20:26:04 17° SSE 20:30:11 86° WSW 20:35:28 10° NNW
NOSS 8 (E) 4.3 20:27:43 10° NW 20:30:47 77° NE 20:32:00 38° SE
IRS-1A Rocket 4.4 20:28:48 18° SSE 20:33:18 90° NNE 20:39:11 10° NNW
Cosmos 405 Rocket 3.3 20:33:26 34° ESE 20:33:44 35° E 20:37:09 10° NNE
Cosmos 1898 Rocket 4.4 20:28:57 10° N 20:33:46 34° NE 20:36:04 24° E
Cosmos 2297 Rocket 2.2 20:31:35 10° NNW 20:37:17 84° WSW 20:40:35 26° SSE
CZ-4C R/B 3.1 20:30:28 10° NW 20:37:19 68° NE 20:42:37 24° ESE
BlueWalker 3 1.8 20:34:28 10° SW 20:38:14 67° SSE 20:40:36 22° ENE
Dummy Sat-01 4.5 20:36:50 29° S 20:38:36 82° E 20:42:18 10° N
Spot 2 Rocket 3.6 20:36:25 29° SE 20:38:56 62° ENE 20:43:55 10° N
Terra 1.8 20:40:08 31° SSE 20:42:21 70° ENE 20:47:04 10° N
Cosmos 1656 3.5 20:38:03 10° SSW 20:43:38 84° ESE 20:49:10 10° NNE
Cosmos 1455 Rocket 3.2 20:46:46 39° SE 20:47:56 50° E 20:52:11 10° NNE
Okean 1 Rocket 3.3 20:43:59 11° SSW 20:48:12 72° WNW 20:52:41 10° N
Iridium 4 Rocket 3.8 20:44:01 12° S 20:49:09 78° W 20:55:02 10° N
ATLAS 5 CENTAUR R/B 3.4 20:46:09 10° W 20:49:09 26° NNW 20:52:33 10° NNE
USA 245 3.8 20:46:54 27° SSE 20:49:45 84° WSW 20:54:05 10° NNW
Cosmos 332 Rocket 3.8 20:44:52 10° NNW 20:49:45 83° WSW 20:51:53 34° SSE
Cosmos 2219 3.7 20:46:44 10° NNW 20:52:12 46° NE 20:54:33 30° ESE
Okean-O 4.2 20:48:41 10° SSW 20:52:36 31° W 20:56:34 10° NNW
Helios 1B 4.4 20:53:50 10° NNE 20:58:09 70° ESE 20:59:33 41° S
Ariane Rocket 2.9 20:56:30 34° SSE 20:58:45 89° ENE 21:03:50 10° NNW
Cosmos 1437 Rocket 2.6 20:55:40 10° N 20:59:36 82° E 21:00:22 56° SSE
Cosmos 1763 Rocket 3.3 20:57:45 26° S 21:00:38 67° ESE 21:05:45 10° NNE
Cosmos 2263 Rocket 3.0 20:58:43 10° NNW 21:04:01 40° NE 21:06:06 29° E
Cosmos 44 3.4 21:00:05 10° SW 21:05:30 85° SE 21:10:51 10° NE
Okean O Rocket 4.4 21:05:51 10° WSW 21:07:47 13° W 21:09:44 10° WNW
Cosmos 990 Rocket 4.1 21:04:49 10° NNW 21:09:59 70° WSW 21:11:52 39° S
USA 267 4.0 21:03:42 10° ENE 21:10:02 53° NNW 21:16:22 10° W
Cosmos 2082 4.4 21:05:08 10° NNW 21:10:32 43° NE 21:12:29 32° E
ARGOS Delta rocket 4.1 21:08:36 40° SSE 21:10:36 79° ENE 21:16:06 10° N
Cosmos 2173 Rocket 4.2 21:08:37 10° N 21:14:55 56° ENE 21:17:01 39° SE
Cosmos 1605 Rocket 4.4 21:08:49 10° NNW 21:15:07 61° W 21:19:09 23° SSW
NOSS 3-2 (A) 4.4 21:08:20 10° NW 21:15:16 55° NE 21:19:58 26° ESE
Aureole 1 Rocket 2.7 21:13:25 10° NNW 21:15:56 57° NW 21:15:56 57° NW
Meteor 2-3 Rocket 4.2 21:12:52 10° N 21:18:20 45° ENE 21:19:41 38° ESE
Cosmos 540 Rocket 3.3 21:18:45 43° S 21:20:21 72° ESE 21:25:28 10° NNE
Cosmos 1606 4.5 21:23:39 20° NE 21:23:39 20° NE 21:25:15 10° NNE
Cosmos 1153 Rocket 4.5 21:16:55 10° N 21:23:16 84° W 21:25:55 37° S
MOS 1 Rocket 2.9 21:25:22 67° S 21:25:56 88° W 21:30:20 10° NNW
Cosmos 2058 2.7 21:22:14 10° N 21:26:17 87° W 21:26:27 82° SSW
Cosmos 1626 Rocket 3.6 21:24:32 10° N 21:28:56 63° ENE 21:29:06 63° E
Cosmos 372 Rocket 3.9 21:25:53 10° NNW 21:31:10 75° ENE 21:32:09 57° SE
Cosmos 468 Rocket 3.8 21:31:31 44° SSW 21:33:12 85° ESE 21:38:28 10° NNE
ERS-1 Rocket 4.1 21:31:22 24° SW 21:33:41 37° W 21:38:22 10° NNW
Cosmos 1802 Rocket 4.1 21:31:12 10° N 21:37:26 61° ENE 21:38:59 47° SE
SPOT 3 Rocket 4.2 21:35:46 34° SSW 21:37:37 50° W 21:42:40 10° NNW
SL-16 R/B 4.4 21:41:08 11° ENE 21:41:08 11° ENE 21:41:32 10° ENE
CENTAUR R/B 3.2 21:32:37 10° NW 21:40:46 84° NE 21:44:47 39° SE
Cosmos 1869 4.2 21:43:56 38° NE 21:43:56 38° NE 21:46:33 10° NNE
Landsat 5 3.5 21:38:37 10° N 21:42:51 72° WNW 21:43:13 67° WSW
Cosmos 841 Rocket 3.7 21:43:35 51° E 21:43:35 51° E 21:48:10 10° NNE
Cosmos 2016 Rocket 4.1 21:38:40 10° N 21:44:42 57° ENE 21:45:55 49° ESE
ATLAS CENTAUR R/B 1.8 21:41:57 10° NW 21:45:04 51° W 21:45:04 51° W
Cosmos 1844 Rocket 4.3 21:43:41 10° NNW 21:48:13 24° NE 21:50:31 19° ENE
Intercosmos 25 3.5 21:43:39 10° NNW 21:48:13 74° WNW 21:48:13 74° WNW
Cosmos 1544 Rocket 3.5 21:49:27 75° NE 21:49:27 75° NE 21:53:28 10° NNE
USA 229 DEB 3.9 21:44:58 10° WSW 21:51:09 64° NW 21:58:03 10° NE
USA 229 3.9 21:45:03 10° WSW 21:51:15 65° NW 21:58:09 10° NE
Cosmos 1727 Rocket 4.1 21:49:08 34° SSW 21:52:02 72° W 21:58:17 10° N
Cosmos 2100 Rocket 4.0 21:46:04 10° NNW 21:52:28 80° W 21:54:16 50° S
Cosmos 2227 Rocket 2.9 21:47:29 10° NW 21:52:49 43° WSW 21:54:10 37° SW
H-2A R/B 3.5 21:54:16 33° NE 21:54:16 33° NE 21:56:57 10° N
SL-4 R/B 3.8 21:51:31 10° W 21:52:47 19° W 21:52:47 19° W
Cosmos 1980 Rocket 2.1 21:55:14 63° ESE 21:55:21 63° ESE 22:00:57 10° NNE
Cosmos 292 Rocket 3.9 21:51:59 10° NNW 21:56:41 62° WSW 21:56:52 61° WSW
Cosmos 1937 Rocket 3.5 21:58:00 10° NNW 22:03:19 70° WSW 22:03:46 66° SW
Cosmos 1000 Rocket 4.4 22:01:36 50° SSW 22:03:20 82° W 22:09:32 10° N
Cosmos 1697 Rocket 3.1 22:00:32 22° SW 22:04:14 61° WNW 22:09:53 10° NNE
Okean 1-7 Rocket 3.6 21:59:51 10° N 22:04:09 79° NNW 22:04:09 79° NNW
Cosmos 2123 Rocket 3.9 22:05:45 61° SSE 22:06:51 75° E 22:13:12 10° NNE
COSMOS 2455 4.2 22:04:49 10° NW 22:09:41 26° WSW 22:11:08 23° SW
Meteor 1-27 4.4 22:10:41 54° E 22:10:41 54° E 22:15:55 10° NNE
CZ-2C R/B 4.0 22:06:40 10° NNE 22:10:47 59° ENE 22:10:47 59° ENE
Cosmos 1602 Rocket 3.8 22:07:26 10° NNW 22:11:18 68° NNW 22:11:18 68° NNW
Cosmos 1758 Rocket 3.8 22:08:01 10° NNW 22:12:06 67° WNW 22:12:06 67° WNW
Cosmos 2228 3.4 22:14:51 58° N 22:14:51 58° N 22:18:17 10° N
Cosmos 1898 Rocket 4.2 22:10:59 10° NW 22:15:53 41° WSW 22:16:18 40° WSW
BlueWalker 3 3.5 22:12:52 10° W 22:15:07 31° WNW 22:15:07 31° WNW
ARIANE 5 R/B 2.8 22:17:17 71° NNW 22:17:17 71° NNW 22:21:20 10° NNW
ATLAS 3B R/B 4.5 22:10:44 10° W 22:17:24 35° NNW 22:24:24 10° NE
Cosmos 2297 Rocket 4.3 22:17:24 10° WNW 22:20:25 15° W 22:22:24 13° WSW
Terra 4.0 22:18:50 14° WSW 22:20:28 16° W 22:23:27 10° NW
CZ-4C R/B 3.7 22:19:02 10° NW 22:25:50 41° WSW 22:27:43 36° SSW
Cosmos 2227 4.3 22:21:32 10° NNW 22:27:14 63° ENE 22:27:45 60° E
Cosmos 2369 3.5 22:27:50 84° SSE 22:27:58 86° ESE 22:33:40 10° NNE
Lacrosse 4 Rocket 3.7 22:33:41 16° NE 22:33:41 16° NE 22:34:37 10° NE
Cosmos 1825 Rocket 4.1 22:26:33 10° N 22:30:02 54° N 22:30:02 54° N
NOSS 3-2 (C) 4.1 22:24:20 10° NW 22:31:33 72° NE 22:34:32 43° ESE
SL-08 R/B 4.4 22:25:22 10° NNW 22:31:43 80° W 22:32:34 67° SSW
H-2A R/B 4.4 22:29:46 10° NE 22:30:48 14° ENE 22:30:48 14° ENE
Meteor 2-8 Rocket 4.4 22:26:46 10° NNW 22:32:55 72° W 22:33:42 64° SW
Cosmos 1725 Rocket 4.0 22:28:09 10° NNW 22:34:17 67° W 22:35:10 60° SW
Cosmos 2233 Rocket 3.8 22:28:31 10° N 22:34:44 87° E 22:35:19 75° SSE
ALOS 2 3.5 22:35:57 42° NE 22:35:57 42° NE 22:39:23 10° N
Cosmos 2219 4.1 22:31:09 10° NW 22:36:12 35° WSW 22:36:27 34° WSW
Cosmos 2061 Rocket 4.0 22:34:44 10° NNW 22:41:12 78° W 22:42:00 68° SSW
Cosmos 1814 Rocket 4.5 22:45:04 51° ENE 22:45:04 51° ENE 22:49:06 10° NNE
Cosmos 2263 Rocket 2.9 22:42:43 10° NW 22:47:47 41° WSW 22:47:47 41° WSW
Cosmos 2360 Rocket 3.9 22:51:06 20° ENE 22:51:06 20° ENE 22:53:45 10° NE
Cosmos 1271 Rocket 4.4 22:47:01 10° N 22:49:07 31° N 22:49:07 31° N
SL-19 R/B 4.4 22:46:20 10° NNE 22:51:47 67° E 22:51:47 67° E
USA 267 4.1 22:46:14 10° ENE 22:52:28 48° N 22:58:42 10° WNW
Cosmos 2333 Rocket 3.8 23:03:47 22° E 23:03:47 22° E 23:06:42 10° NE
Lacrosse 5 4.1 23:05:57 15° ENE 23:05:57 15° ENE 23:06:58 10° ENE
Cosmos 2322 Rocket 3.3 23:03:59 31° ENE 23:03:59 31° ENE 23:07:38 10° NE
Cosmos 2219 Rocket 4.3 23:05:42 14° E 23:05:42 14° E 23:07:23 10° ENE
NOSS 3-2 (A) 4.3 22:59:08 10° NW 23:06:22 54° WSW 23:07:20 51° SW
Spot 4 4.4 23:09:20 52° NW 23:09:20 52° NW 23:13:15 10° NNW
Cosmos 1809 Rocket 4.4 23:21:05 70° E 23:21:05 70° E 23:27:15 10° NNE
SL-16 R/B 2.4 23:22:57 65° ENE 23:22:57 65° ENE 23:27:55 10° NNE
Cosmos 1844 3.7 23:17:48 10° NNW 23:23:28 80° NE 23:23:28 80° NE
CENTAUR R/B 4.1 23:23:47 10° NW 23:31:08 34° WSW 23:31:56 33° WSW
USA 238 DEB 3.8 23:24:02 10° NW 23:31:22 87° NE 23:32:58 61° SE
USA 238 3.8 23:24:07 10° NW 23:31:28 87° NE 23:33:05 60° SE
Cosmos 1125 Rocket 3.8 23:27:24 10° NNW 23:31:49 62° NW 23:31:49 62° NW
Cosmos 1844 Rocket 2.8 23:27:09 10° NNW 23:32:08 69° NW 23:32:08 69° NW
Cosmos 1980 Rocket 3.8 23:36:55 19° W 23:39:47 29° NW 23:44:41 10° NNE
PSLV R/B 4.4 23:35:32 10° NNE 23:39:04 52° NNE 23:39:04 52° NNE
Meteor 2-14 Rocket 4.3 23:41:04 87° ESE 23:41:07 87° E 23:47:18 10° N
Cosmos 1072 Rocket 4.4 23:35:54 10° N 23:42:20 83° W 23:42:32 82° SW
Cosmos 2346 Rocket 4.5 23:42:06 70° W 23:42:23 71° WNW 23:48:39 10° N
Cosmos 2278 3.9 23:44:40 61° WNW 23:44:53 61° WNW 23:50:32 10° NNE
Timation 2 Rocket 3.9 23:41:25 10° NNW 23:48:05 88° WSW 23:48:19 84° S
Cosmos 1816 Rocket 4.4 23:51:35 69° E 23:51:38 69° E 23:57:44 10° NNE
